Regional Weather Roundup
Issued by NWS

Home | Current Version | Previous Version | Graphics & Text | Print | Product List | Glossary Off
Versions: 1 2 3 4 5 6 7 8 9 10 11 12 13 14 15 16 17 18 19 20 21 22 23 24 25 26 27 28 29 30 31 32 33 34 35 36 37 38 39 40 41 42 43 44 45 46 47 48 49 50

000
ASUS43 KTOP 221859
RWRKS

WEATHER ROUNDUP FOR KANSAS
NATIONAL WEATHER SERVICE GOODLAND KS
200 PM CDT WED MAR 22 2017

NOTE:  "FAIR" INDICATES FEW OR NO CLOUDS BELOW 12,000 FEET WITH NO
SIGNIFICANT WEATHER AND/OR OBSTRUCTIONS TO VISIBILITY.

KSZ001>006-013>018-027>032-041>047-222000-
NORTHWEST KANSAS

CITY           SKY/WX    TMP DP  RH WIND       PRES   REMARKS
GOODLAND       CLOUDY    52  33  48 S22G35    30.06F
HAYS             N/A     49  28  44 SE14      30.18F
HILL CITY      CLOUDY    50  29  44 S17G23    30.17F
RUSSELL        CLOUDY    50  27  40 SE13G23   30.17F
$$

KSZ061>065-074>080-084>089-222000-
SOUTHWEST KANSAS

CITY           SKY/WX    TMP DP  RH WIND       PRES   REMARKS
DODGE CITY     CLOUDY    54  32  43 SE12      30.15F
ELKHART          N/A     59  37  44 SE16        N/A
GARDEN CITY    CLOUDY    54  35  48 SE16G25   30.13F
GREAT BEND     CLOUDY    53  30  41 E16       30.17F
LIBERAL        SUNNY     57  36  44 SE12      30.15F
$$

KSZ066>073-081>083-090>101-222000-
SOUTHEAST KANSAS

CITY           SKY/WX    TMP DP  RH WIND       PRES   REMARKS
CHANUTE        CLOUDY    57  28  33 E14       30.25F
COFFEYVILLE    CLOUDY    57  37  47 E10       30.24F
HUTCHINSON     CLOUDY    54  30  40 SE12      30.20F
MEDICINE LODGE   N/A     51  33  50 SE7       30.18F
NEWTON         CLOUDY    53  30  41 E15G21    30.21
PARSONS        CLOUDY    57  29  34 SE8       30.25F
WICHITA INTL   CLOUDY    54  32  43 E12       30.20F
WICHITA JABRA  CLOUDY    53  31  42 E12       30.21F
WICHITA MCCONL CLOUDY    54  31  40 E12       30.20F
WINFIELD       CLOUDY    56  37  49 E12       30.20F
$$

KSZ007>012-019>026-033>040-048>060-102>105-222000-
NORTHEAST KANSAS

CITY           SKY/WX    TMP DP  RH WIND       PRES   REMARKS
CONCORDIA      CLOUDY    53  22  29 SE15      30.23F
EMPORIA        CLOUDY    55  26  32 E16G22    30.24F
LAWRENCE       MOSUNNY   54  22  28 E14G20    30.31F
MANHATTAN      SUNNY     58  23  26 E10G20    30.25F
OLATHE IND     CLOUDY    52  24  33 E14G21    30.30F
OLATHE EXE     PTSUNNY   53  26  35 E12       30.30F
SALINA         CLOUDY    58  24  27 SE10      30.22F
TOPEKA BILLARD PTSUNNY   57  24  28 E14G21    30.29F
TOPEKA FORBES  MOSUNNY   59  21  23 E13       30.27F
$$




USA.gov is the U.S. government's official web portal to all federal, state and local government web resources and services.